Showing default

ICEYE-X5, 44389

Orbit data source: Space-Track

ICEYE-X5, 44389 is a payload satellite owned by ICEYE (FI) in SSO that was launched on Fri, 05 Jul 2019 UTC via a SOYUZ-2-1B launch vehicle from the Vostochny Cosmodrome (VOSTO). Payloads include a variety of satellites, spacecraft, and rockets equipped with specific instruments for various scientific and technological missions. These include communications satellites like Starlink; space stations such as the ISS; scientific satellites like the Hubble; Earth observation satellites from companies like Planet Labs, Umbra, and HawkEye 360; GPS; miniature CubeSats for education and research; and military/defense satellites.

Loading next visibility...
ICEYE-X5 details
Identifier
44389, 2019-038C
Orbit
SSO
Last TLE update9 hours ago
Origin
Flag of FIICEYE (FI / FIN)
ManufacturerICEYE
MissionOperational Commercial Radar Imaging
Bus & MotorICEYE, Unknown motor
Mass80 kg wet, 80 kg dry
Launch date (UTC)
2019-07-05 (5 years ago)
Launch vehicle
SOYUZ-2-1B
Launch site
Vostochny Cosmodrome (VOSTO)
Object type
Payload
Rocket body
Debris
Shape & HBRBox + 1 Pan, 3.25 m
Radar Cross Section1.837 m², Large (>1 m²)

Expand to show TLE details & history

TLE from 9 hours ago
0 ICEYE-X5
1 44389U 19038C   24361.09377939  .00026117  00000-0  10935-2 0  9999
2 44389  97.9217   4.0143 0012666  11.2320 348.9196 15.23464324300273
Epoch: 2024-12-26T02:15Z
Definitive object data (Epoch: 2024-12-26T02:15:02.539Z)
Latitude0.00001°
Longitude-124.8244°
Altitude489.935 km
Speed7.625 km/s
True Right ascension00h 16m 03s
True Declination0° 00' 00"
Sunlit
Object was in daylight at TLE epoch
Visualization TLE readout
Latitude8.62725°
Longitude-125.60994°
Altitude489.003 km
Speed7.626 km/s
Apparent Right ascension23h 44m 59s
Apparent Declination-14° 45' 23"
Sunlit
Object is in daylight
Visualization observer readout
Local Sidereal Time11:06:11
Azimuth338.626° N
Elevation-63.448°
Doppler factor1
Orbital elements
Apogee altitude501.087 km
Perigee altitude483.683 km
Semi-major axis6,870.522 km
Eccentricity0.0012666
Inclination97.9217°
RAAN4.0143°
Arg. of periapsis11.232°
True anomaly348.89166°
Mean anomaly348.9196°
Eccentric anomaly348.90564°
Mean motion3.81117 °/min
BSTAR0.0010935
Orbital period94.46 mins
Loading maneuver chart data...

ICEYE-X5 Visibility forecast

Observer location: undefined°, undefined

Span
Click to sort rows by Start time (UTC) header in descending order
Start Az.
Max El. time (UTC)
Max El. Az.
Max El.
End time (UTC)
End Az.
4 mins2024-12-26 13:51:47.580Z333.79° NNW2024-12-26 13:53:47.580Z269.806° W28.584°2024-12-26 13:55:47.580Z228.746° WSW
5 mins2024-12-27 00:27:47.580Z166.41° S2024-12-27 00:29:47.580Z349.876° N44.907°2024-12-27 00:32:47.580Z347.451° N
|